Weather History for Columbus, GA

Change the Weather History Date:

Sunday, March 16, 2014

  Actual Average Record
Temperature  
Mean Temperature 59 °F 58 °F  
Max Temperature 63 °F 70 °F 85 °F (2002)
Min Temperature 55 °F 46 °F 27 °F (1949)
Degree Days  
Heating Degree Days 6 8  
Month to date heating degree days 174 150  
Since 1 July heating degree days 2117 1927  
Cooling Degree Days 0 1  
Month to date cooling degree days 0 9  
Year to date cooling degree days 3 13  
Growing Degree Days 9 (Base 50)    
Moisture  
Dew Point 56 °F    
Average Humidity 83    
Maximum Humidity 100    
Minimum Humidity 65    
Precipitation  
Precipitation 2.36 in 0.18 in 5.38 in (1990)
Month to date precipitation 3.04 2.87  
Year to date precipitation 11.36 11.16  
Snow  
Snow 0.00 in 0.00 in 0.00 in (2002)
Month to date snowfall 0.0 0.1  
Since 1 July snowfall 1.2 0.4  
Snow Depth 0.00 in    
Sea Level Pressure  
Sea Level Pressure 29.75 in    
Wind  
Wind Speed 8 mph (SE)    
Max Wind Speed 21 mph    
Max Gust Speed 28 mph    
Visibility 6 miles    
Events Rain , Thunderstorm    
T = Trace of Precipitation, MM = Missing Value Source: NWS Daily Summary

Daily Weather History Graph

Daily Weather History Graph

Search for Another Location

Airport:

Trip Planner

Search our weather history database for the weather conditions in past years. The results will help you decide how hot, cold, wet, or windy it might be!

Date:

Astronomy

Mar. 16, 2014 Rise Set
Actual Time 7:48 AM EDT 7:48 PM EDT
Civil Twilight 7:24 AM EDT 8:13 PM EDT
Nautical Twilight 6:55 AM EDT 8:41 PM EDT
Astronomical Twilight 6:26 AM EDT 9:10 PM EDT
Moon 8:02 PM EDT (3/16) 7:32 AM EDT (3/16)
Length of Visible Light 12h 48m
Length of Day
11h 59m
Full, 100% of the Moon is Illuminated
Mar 16
Full
Mar 16
Full
Mar 23
Last Quarter
Mar 30
New
Apr 7
First Quarter

Hourly Weather History & Observations

Time (EDT) Temp. Dew Point Humidity Pressure Visibility Wind Dir Wind Speed Gust Speed Precip Events Conditions
12:51 AM 62.1 °F 50.0 °F 65% 29.98 in 10.0 mi Calm Calm - N/A   Overcast
1:51 AM 61.0 °F 52.0 °F 72% 29.96 in 9.0 mi South 4.6 mph - 0.00 in Rain Light Rain
2:51 AM 59.0 °F 52.0 °F 78% 29.93 in 10.0 mi ESE 5.8 mph - 0.00 in   Overcast
3:51 AM 59.0 °F 52.0 °F 78% 29.89 in 8.0 mi ENE 4.6 mph - N/A   Overcast
4:51 AM 57.9 °F 54.0 °F 87% 29.85 in 8.0 mi East 8.1 mph - 0.01 in   Overcast
5:51 AM 57.0 °F 53.1 °F 87% 29.81 in 8.0 mi ESE 9.2 mph - 0.00 in Rain Light Rain
6:51 AM 55.9 °F 54.0 °F 93% 29.82 in 5.0 mi East 6.9 mph - 0.05 in Rain Light Rain
7:51 AM 55.9 °F 54.0 °F 93% 29.81 in 3.0 mi East 8.1 mph - 0.03 in Rain Rain
8:16 AM 55.4 °F 53.6 °F 94% 29.78 in 2.5 mi East 11.5 mph - 0.08 in Rain Rain
8:24 AM 55.4 °F 53.6 °F 94% 29.79 in 4.0 mi East 11.5 mph - 0.10 in Rain Rain
8:51 AM 55.9 °F 54.0 °F 93% 29.76 in 2.5 mi East 11.5 mph - 0.22 in Rain Heavy Rain
9:18 AM 55.4 °F 53.6 °F 94% 29.74 in 1.5 mi ESE 15.0 mph - 0.20 in Rain Heavy Rain
9:35 AM 55.4 °F 53.6 °F 94% 29.81 in 1.5 mi North 4.6 mph - 0.33 in Rain Heavy Rain
9:43 AM 55.4 °F 53.6 °F 94% 29.80 in 0.8 mi SE 6.9 mph - 0.48 in Rain , Thunderstorm Heavy Thunderstorms and Rain
9:51 AM 55.0 °F 54.0 °F 96% 29.79 in 1.0 mi ESE 9.2 mph - 0.68 in Rain , Thunderstorm Heavy Thunderstorms and Rain
10:03 AM 55.4 °F 53.6 °F 94% 29.77 in 1.0 mi East 11.5 mph - 0.10 in Rain , Thunderstorm Rain
10:15 AM 55.4 °F 53.6 °F 94% 29.76 in 2.0 mi East 11.5 mph - 0.16 in Rain Rain
10:28 AM 55.4 °F 53.6 °F 94% 29.77 in 1.2 mi ESE 8.1 mph - 0.20 in Rain Heavy Rain
10:37 AM 55.4 °F 53.6 °F 94% 29.79 in 0.8 mi SE 5.8 mph - 0.36 in Rain Heavy Rain
10:46 AM 55.4 °F 55.4 °F 100% 29.81 in 0.8 mi NE 3.5 mph - 0.46 in Rain Heavy Rain
10:51 AM 55.0 °F 55.0 °F 100% 29.78 in 0.8 mi ESE 10.4 mph - 0.52 in Rain Heavy Rain
10:55 AM 55.4 °F 53.6 °F 94% 29.80 in 0.8 mi ESE 5.8 mph - 0.05 in Rain , Thunderstorm Heavy Rain
11:02 AM 55.4 °F 55.4 °F 100% 29.80 in 1.2 mi East 6.9 mph - 0.09 in Rain , Thunderstorm Heavy Rain
11:09 AM 55.4 °F 55.4 °F 100% 29.81 in 1.8 mi East 8.1 mph - 0.22 in Rain , Thunderstorm Heavy Rain
11:12 AM 55.4 °F 55.4 °F 100% 29.81 in 1.8 mi ENE 8.1 mph - 0.24 in Rain , Thunderstorm Heavy Rain
11:26 AM 55.4 °F 55.4 °F 100% 29.82 in 1.8 mi North 8.1 mph - 0.40 in Rain , Thunderstorm Heavy Rain
11:45 AM 55.4 °F 53.6 °F 94% 29.80 in 1.8 mi East 12.7 mph - 0.60 in Rain Heavy Rain
11:51 AM 55.9 °F 54.0 °F 93% 29.79 in 1.8 mi East 10.4 mph - 0.63 in Rain Heavy Rain
12:04 PM 55.4 °F 53.6 °F 94% 29.75 in 2.0 mi East 15.0 mph - 0.05 in Rain Rain
12:25 PM 55.4 °F 53.6 °F 94% 29.68 in 4.0 mi ESE 18.4 mph 27.6 mph 0.10 in Rain Light Rain
12:34 PM 55.4 °F 53.6 °F 94% 29.72 in 6.0 mi ESE 10.4 mph 27.6 mph 0.11 in Rain , Thunderstorm Light Thunderstorms and Rain
12:43 PM 55.4 °F 55.4 °F 100% 29.71 in 6.0 mi East 10.4 mph - 0.12 in Rain Light Rain
12:51 PM 55.9 °F 55.0 °F 97% 29.71 in 9.0 mi SE 9.2 mph - 0.12 in Rain Light Rain
12:58 PM 55.4 °F 55.4 °F 100% 29.71 in 10.0 mi SSE 9.2 mph - 0.00 in Rain , Thunderstorm Thunderstorms and Rain
1:07 PM 55.4 °F 55.4 °F 100% 29.71 in 10.0 mi East 5.8 mph - 0.01 in Rain , Thunderstorm Thunderstorms and Rain
1:25 PM 55.4 °F 55.4 °F 100% 29.68 in 10.0 mi ESE 4.6 mph - 0.01 in Rain , Thunderstorm Thunderstorms and Rain
1:48 PM 57.2 °F 55.4 °F 94% 29.71 in 10.0 mi SSW 3.5 mph - 0.01 in   Partly Cloudy
1:51 PM 57.0 °F 55.9 °F 96% 29.70 in 10.0 mi Calm Calm - 0.01 in   Scattered Clouds
2:04 PM 57.2 °F 55.4 °F 94% 29.68 in 10.0 mi Calm Calm - N/A   Mostly Cloudy
2:34 PM 59.0 °F 57.2 °F 94% 29.69 in 10.0 mi Calm Calm - N/A   Overcast
2:51 PM 59.0 °F 57.0 °F 93% 29.69 in 10.0 mi SSW 4.6 mph - N/A   Overcast
3:07 PM 60.8 °F 57.2 °F 88% 29.69 in 10.0 mi Calm Calm - N/A   Overcast
3:25 PM 60.8 °F 57.2 °F 88% 29.68 in 10.0 mi Variable 4.6 mph - N/A   Overcast
3:51 PM 61.0 °F 59.0 °F 93% 29.66 in 10.0 mi South 8.1 mph - N/A   Overcast
4:51 PM 62.1 °F 61.0 °F 96% 29.65 in 7.0 mi SSW 8.1 mph - N/A   Overcast
5:32 PM 62.6 °F 60.8 °F 94% 29.64 in 5.0 mi South 3.5 mph - N/A   Overcast
5:51 PM 63.0 °F 61.0 °F 93% 29.64 in 6.0 mi South 6.9 mph - N/A   Overcast
6:51 PM 63.0 °F 61.0 °F 93% 29.68 in 9.0 mi SSW 11.5 mph - N/A   Overcast
7:51 PM 63.0 °F 60.1 °F 90% 29.70 in 10.0 mi SSW 13.8 mph - 0.00 in Rain Light Rain
8:47 PM 60.8 °F 59.0 °F 94% 29.72 in 8.0 mi South 10.4 mph - 0.03 in Rain Light Rain
8:51 PM 61.0 °F 59.0 °F 93% 29.72 in 8.0 mi South 13.8 mph 19.6 mph 0.03 in Rain Light Rain
9:09 PM 60.8 °F 59.0 °F 94% 29.72 in 7.0 mi South 10.4 mph - 0.02 in Rain Light Rain
9:18 PM 60.8 °F 59.0 °F 94% 29.71 in 6.0 mi South 12.7 mph 18.4 mph 0.03 in Rain Light Rain
9:31 PM 60.8 °F 59.0 °F 94% 29.71 in 5.0 mi South 9.2 mph 23.0 mph 0.05 in Rain Light Rain
9:46 PM 60.8 °F 59.0 °F 94% 29.72 in 10.0 mi South 5.8 mph - 0.06 in Rain Light Rain
9:51 PM 60.1 °F 59.0 °F 96% 29.72 in 10.0 mi Variable 5.8 mph - 0.06 in Rain Light Rain
10:51 PM 60.1 °F 57.9 °F 93% 29.71 in 10.0 mi South 10.4 mph - 0.00 in   Overcast
11:15 PM 60.8 °F 59.0 °F 94% 29.72 in 10.0 mi SSW 6.9 mph - N/A   Overcast
11:51 PM 60.1 °F 57.9 °F 93% 29.70 in 10.0 mi SSW 8.1 mph - N/A   Overcast